Location: Mount Cross
(36.6390°N, 79.4878°W)
Time: 02:03:53
(UTC+00:00)

Vanguard 2 Rocket - Pass Details

Date: 29 March 2023
Orbit: 554 x 3314 km, 32.9° (Epoch: 08 June)

Event Time Altitude Azimuth Distance (km) Brightness Sun altitude
Rises 03:59:22 0° 276° (W) 4,351 10.7 -45.6°
Reaches altitude 10° 04:01:52 10° 272° (W) 3,663 10.2 -45.9°
Enters shadow 04:05:33 29° 260° (W) 2,847 9.4 -46.2°
